Regional Weather Roundup
Issued by NWS

Home | Current Version | Previous Version | Text Only | Print | Product List | Glossary On
Versions: 1 2 3 4 5 6 7 8 9 10 11 12 13 14 15 16 17 18 19 20 21 22 23 24 25 26 27 28 29 30 31 32 33 34 35 36 37 38 39 40 41 42 43 44 45 46 47 48 49 50
000
ASUS46 KLOX 202212
RWRCA

SOUTHERN CALIFORNIA WEATHER ROUNDUP
NATIONAL WEATHER SERVICE OXNARD CALIFORNIA
300 PM PDT SAT SEP 20 2014

NOTE: "FAIR" INDICATES FEW OR NO CLOUDS BELOW 12,000 FEET WITH NO
SIGNIFICANT WEATHER AND/OR OBSTRUCTIONS TO VISIBILITY.

  -  STATIONS PRECEEDED BY AN ASTERISK (*) ARE NOT NWS OR FAA
     STATIONS AND ARE NOT SUBJECT TO NWS AND FAA QUALITY CONTROL.

CAZ041-042-087-202300-
LA AND ORANGE COUNTY COASTAL AREAS


CITY           SKY/WX    TMP DP  RH WIND       PRES   REMARKS
L.A. DOWNTOWN  SUNNY     77  61  57 VRB3      29.89F
L.A. AIRPORT   MOSUNNY   75  61  61 W10       29.91F
LONG BEACH     MOSUNNY   77  62  59 VRB3      29.89F

CITY           SKY/WX    TMP DP  RH WIND       PRES   REMARKS
AVALON           N/A     73 N/A N/A E2          N/A
FULLERTON      MOSUNNY   78  61  55 VRB3      29.88F
*GETTY CENTER    N/A    N/A N/A N/A SW9         N/A
HAWTHORNE      MOSUNNY   77  61  57 VRB6      29.90F
*LEO CARRILLO    N/A     79  64  59 SW5         N/A
*LOS ALAMITOS  MOSUNNY   78  62  58 VRB2      29.89F
*REDONDO BEACH   N/A     76  63  63 CALM      29.90F
SANTA ANA      MOSUNNY   80  59  48 VRB7      29.89F
STA MONICA APT SUNNY     75  60  59 W8        29.90F
TORRANCE       MOSUNNY   77  64  65 NW13      29.91F
*UCLA            N/A     73  59  60 SW6       29.88S

$$

CAZ547-548-048-202300-
LA COUNTY VALLEYS AND INLAND EMPIRE


CITY           SKY/WX    TMP DP  RH WIND       PRES   REMARKS
BURBANK        SUNNY     77  59  53 CALM      29.90F
VAN NUYS       SUNNY     79  59  50 CALM      29.90F

CITY           SKY/WX    TMP DP  RH WIND       PRES   REMARKS
CORONA AIRPORT CLEAR     80  63  56 W10G18    29.89F
*CHATSWORTH      N/A     79  62  56 SE2       29.85F
CHINO          MOSUNNY   82  61  48 W12       29.90F
*CLAREMONT       N/A     80  60  49 SW8         N/A
MARCH AFB      MOSUNNY   82  61  49 NW12      29.90F
*NORTHRIDGE      N/A     79  57  47 E2          N/A
ONTARIO        MOSUNNY   81  59  47 W10       29.89F
*PASADENA        N/A     79  64  61 E16         N/A
POMONA         SUNNY     77  59  53 SW7       29.93F
RIVERSIDE      SUNNY     80  61  52 W12G17    29.89F
SAN BERNARDINO NOT AVBL
*SAN GABRIEL     N/A     78  59  51 CALM      29.85F
*SAN RAFAEL HI   N/A     83  65  53 W2G14       N/A
*WHITEMAN AP   SUNNY     75  59  57 CALM      29.94F
*WOODLAND HILL   N/A     82  59  44 SE3         N/A

$$

CAZ054-055-202300-
LA AND SAN BERNARDINO COUNTY MOUNTAINS


CITY           SKY/WX    TMP DP  RH WIND       PRES   REMARKS
*ACTON           N/A     84  55  36 SW12        N/A
*BIG BEAR AIRP CLEAR     70  41  35 SE12G20   30.16F
*BIG PINES       N/A     71  46  39 SW2         N/A
MT WILSON NWS    N/A     75  57  53 SW5         N/A
SANDBERG       SUNNY     80  50  34 S14       30.05F

$$

CAZ028-029-059-060-099-202300-
ANTELOPE VALLEY AND SURROUNDING AREAS


CITY           SKY/WX    TMP DP  RH WIND       PRES   REMARKS
LANCASTER      SUNNY     89  52  28 SW14      29.89F
PALMDALE       MOSUNNY   89  47  23 W13       29.89F
*POPPY PARK      N/A     87  53  30 SW14        N/A

CITY           SKY/WX    TMP DP  RH WIND       PRES   REMARKS
29 PALMS       SUNNY     93  52  24 SE9G23    29.91F HX  90
BARSTOW/DAGGET MOSUNNY   94  48  20 E12G24    29.83F HX  90
BISHOP         PTSUNNY   85  39  19 E17G30    29.98F
CHINA LAKE     SUNNY     93  43  17 MISG      29.86F
EDWARDS AFB    MOSUNNY   91  46  20 VRB6      29.85F
MOJAVE         FAIR      86  41  20 SW5       29.92F
NEEDLES        MOSUNNY  100  54  21 SW8G21    29.77F HX  98
VICTORVILLE    MOSUNNY   90  46  22 S8        29.90F

$$

CAZ039-040-202300-
VENTURA AND SANTA BARBARA COUNTY COAST


CITY           SKY/WX    TMP DP  RH WIND       PRES   REMARKS
CAMARILLO      SUNNY     79  62  56 SW12      29.90S
NWS OXNARD       N/A     77  62  60 SW3       29.89F
OXNARD AIRPORT SUNNY     73  63  70 W12       29.90F
*POINT MUGU    MOSUNNY   79  64  60 SW8       29.91F
SBA APT/GOLETA SUNNY     75  61  61 W9        29.90F
*SANTA BARBARA   N/A     81  60  48 NE1       29.98S
*VENTURA         N/A     78  62  58 SW3       29.96S

$$

CAZ044-045-202300-
VENTURA COUNTY VALLEYS


CITY           SKY/WX    TMP DP  RH WIND       PRES   REMARKS
*SIMI VALLEY     N/A     82  62  51 CALM      29.83F
*OJAI            N/A     81  63  53 W1        29.83S
*FILLMORE        N/A     83  66  56 SW7       29.78F

$$

CAZ053-202300-
VENTURA COUNTY MOUNTAINS


CITY           SKY/WX    TMP DP  RH WIND       PRES   REMARKS
*LOCKWOOD VLY    N/A     73  43  33 MISG        N/A
*ROSE VALLEY     N/A    N/A N/A N/A MISG        N/A

$$

CAZ034-035-036-202300-
CENTRAL COAST AND SANTA YNEZ VALLEY


CITY           SKY/WX    TMP DP  RH WIND       PRES   REMARKS
SAN LUIS OBISP SUNNY     76  59  55 NW8       29.91F
SANTA MARIA    MOSUNNY   75  59  57 NW16      29.92F

CITY           SKY/WX    TMP DP  RH WIND       PRES   REMARKS
*CAL POLY SLO    N/A     73  63  68 W8          N/A
*LOMPOC        SUNNY     72  59  64 W13G20    29.93F
*PISMO BEACH     N/A     67  62  82 SW6       29.93F
*SANTA YNEZ    FAIR      82  55  39 W9G18     29.90S

$$

CAZ037-038-051-202300-
SAN LUIS OBISPO COUNTY INTERIOR AND CUYAMA VALLEY


CITY           SKY/WX    TMP DP  RH WIND       PRES   REMARKS
*CUYAMA          N/A     85  53  33 W3        29.80F
PASO ROBLES    SUNNY     85  56  37 SW15G24   29.87F

$$

CAZ032-033-061-202300-
SOUTHERN DESERTS


CITY           SKY/WX    TMP DP  RH WIND       PRES   REMARKS
BLYTHE         SUNNY    101  48  16 VRB6G20   29.74F HX  97
IMPERIAL       SUNNY    100  58  24 SE10      29.72F HX  99
PALM SPRINGS   SUNNY    100  51  19 SE10      29.77F HX  97
THERMAL        SUNNY     99  65  32 SE10      29.71F HX 102

$$

ELSEWHERE ACROSS THE WESTERN UNITED STATES AND MEXICO


CITY           SKY/WX    TMP DP  RH WIND       PRES   REMARKS
DENVER, CO     MOSUNNY   79  45  29 E8        30.23F
GRAND CANYON,  CLOUDY    68  53  58 W9        30.20S
HONOLULU, HI   MOSUNNY   88  72  58 S13       29.92F HX  94
KAHULUI, MAUI  MOSUNNY   91  70  49 NW8G16    29.91F HX  97
LAKE TAHOE, CA PTSUNNY   78  33  19 VRB7G18   30.13F
LAS VEGAS, NV  PTSUNNY   96  44  16 S6        29.81F HX  92
MAMMOTH LAKES, FAIR      73  34  23 E21G26    30.18S
MEXICO CITY, M PTSUNNY   75  46  35 NE7       30.20F
PHOENIX, AZ    MOSUNNY   97  63  32 SW9       29.79F HX  98
PORTLAND, OR   MOSUNNY   93  52  24 E17       29.85F HX  90
RENO, NV       PTSUNNY   87  36  16 E13G21    30.03F
SALT LAKE CITY MOSUNNY   84  49  29 W12       30.09F
SAN DIEGO, CA  MOSUNNY   76  59  55 W8        29.91F
SAN FRANCISCO, MOSUNNY   75  61  61 W18       29.90F
SAN JOSE, CA   MOSUNNY   74  61  63 W15       29.88F
SEATTLE, WA    MOSUNNY   74  56  53 N9        30.00F
TIJUANA, MEX   SUNNY     75  57  53 W14       29.92F

$$

STATION/POSITION TIME  TEMP    WIND        PRES    VSBY  WAVE
                       AIR SEA DIR/SP/G                  HT/PER
                 (UTC) (F)     (DEG/KT/KT) (MB)    (MI)  (FT/S)
POINT ARGUELLO B NOT AVBL
WEST SANTA BARBA 2200   64 65  330/  8/ 10 1012.6F         3/13
POINT CONCEPTION NOT AVBL
EAST SANTA BARBA 2200   66     270/  8     1013.0F
SANTA MONICA BAY 2200   70 73  220/  6/  8 1012.6F         3/14



USA.gov is the U.S. government's official web portal to all federal, state and local government web resources and services.